Torna al catalogo

STARLINK-32525

AttivoComunicazioniVLEO
NORAD 62121·PAYLOAD·🇺🇸 United States

Lanciato Nov 27, 2024 da Cape Canaveral Space Force Station

Loading…

Prossimi Passaggi (prossime 24 ore)

TLE

AggiornatoSource: CelesTrak SupGP

Epoca: Sep 15, 2026, 02:35 UTC

1 62121C 24222H   26258.10812500 -.00017203  00000+0 -62337-3 0  2580
2 62121  43.0000 146.1735 0001349 281.2663 354.1645 15.27572507    13

Traccia STARLINK-32525 in tempo reale con AllMySat

Download on the App Store